This is the latest recevied weather packets stored in our database for station/object KE8RXN. If no packets are shown the sender has not sent any weather packets the latest 10 day(s).
| Time | Temp. | Humidity | Pressure | Rain* | Wind** | Luminosity | Snow |
|---|---|---|---|---|---|---|---|
| 1777739965 | 7.78° C | 51% | 1022 hPa | 0 mm | - | 349 W/m² | - |
| 1777739662 | 7.22° C | 53% | 1022.2 hPa | 0 mm | - | 211 W/m² | - |
| 1777739360 | 7.22° C | 53% | 1022.2 hPa | 0 mm | - | 122 W/m² | - |
| 1777739056 | 7.22° C | 52% | 1022.1 hPa | 0 mm | - | 171 W/m² | - |
| 1777738753 | 7.78° C | 51% | 1022.5 hPa | 0 mm | - | 343 W/m² | - |
| 1777738449 | 7.22° C | 52% | 1022.4 hPa | 0 mm | - | 246 W/m² | - |
| 1777738147 | 7.22° C | 52% | 1022.3 hPa | 0 mm | - | 237 W/m² | - |
| 1777737845 | 7.22° C | 53% | 1022.3 hPa | 0 mm | - | 199 W/m² | - |
| 1777737544 | 7.22° C | 51% | 1022.5 hPa | 0 mm | - | 176 W/m² | - |
| 1777737241 | 7.22° C | 53% | 1022.3 hPa | 0 mm | - | 342 W/m² | - |
| 1777736937 | 6.67° C | 54% | 1022.3 hPa | 0 mm | - | 347 W/m² | - |
| 1777735717 | 7.22° C | 52% | 1022.4 hPa | 0 mm | - | 236 W/m² | - |
| 1777735415 | 6.67° C | 55% | 1022.4 hPa | 0 mm | - | 197 W/m² | - |
| 1777735112 | 7.22° C | 54% | 1022.4 hPa | 0 mm | - | 162 W/m² | - |
| 1777734808 | 7.78° C | 53% | 1022.3 hPa | 0 mm | - | 177 W/m² | - |
| 1777734506 | 7.78° C | 54% | 1022.4 hPa | 0 mm | - | 1070 W/m² | - |
| 1777734202 | 7.78° C | 54% | 1022.4 hPa | 0 mm | - | 989 W/m² | - |
| 1777733899 | 7.22° C | 54% | 1022.6 hPa | 0 mm | - | 948 W/m² | - |
| 1777733596 | 6.67° C | 55% | 1022.4 hPa | 0 mm | - | 207 W/m² | - |
| 1777733292 | 6.67° C | 55% | 1022.5 hPa | 0 mm | - | 379 W/m² | - |
| 1777732989 | 7.22° C | 54% | 1022.5 hPa | 0 mm | - | 203 W/m² | - |
| 1777732685 | 7.22° C | 54% | 1022.6 hPa | 0 mm | - | 629 W/m² | - |
| 1777732382 | 7.22° C | 53% | 1022.5 hPa | 0 mm | - | 818 W/m² | - |
| 1777732080 | 7.22° C | 55% | 1022.6 hPa | 0 mm | - | 585 W/m² | - |
| 1777731776 | 7.22° C | 53% | 1022.5 hPa | 0 mm | - | 195 W/m² | - |
* Rain latest hour (hover to see other rain measurements)
** Current wind speed in m/s (hover to see current wind gust speed)